Список аэропортов
Фактическая погода:

25 августа, 21:00
Температура: +29°C (+29.0*)
Ветер: юго-западный 3 м/с
Давление: *756 мм
Без существ. явл.
Время (МСК)Темп. СВетерВлажностьДавлениеОблачностьОсадки
21:00+30З, 2 м/с64%1009 гПаясно
22:00+29СЗ, 1 м/с65%1009 гПаясно
23:00+28Штиль 71%1009 гПаясно
26 августа
00:00+27Ю, 1 м/с79%1009 гПаясно
01:00+26Ю, 2 м/с87%1009 гПаясно
02:00+26ЮЗ, 2 м/с89%1008 гПаясно
03:00+26ЮЗ, 2 м/с88%1008 гПаясно
04:00+25З, 2 м/с87%1008 гПаясно
05:00+25СЗ, 2 м/с87%1008 гПаясно
06:00+25З, 2 м/с87%1008 гПаясно
07:00+25ЮЗ, 1 м/с84%1009 гПаясно
08:00+27Ю, 1 м/с80%1009 гПаясно
09:00+29ЮВ, 2 м/с72%1009 гПаясно
10:00+30ЮВ, 3 м/с65%1009 гПаясно
11:00+31ЮВ, 3 м/с61%1009 гПаясно
12:00+31ЮВ, 5 м/с60%1009 гПаясно
13:00+32Ю, 6 м/с60%1009 гПаясно
14:00+32Ю, 7 м/с60%1009 гПаясно
15:00+32Ю, 8 м/с61%1008 гПаясно
16:00+31Ю, 8 м/с64%1008 гПаясно
17:00+32ЮЗ, 6 м/с63%1008 гПаясно
18:00+32ЮЗ, 3 м/с63%1008 гПамалооблачно
19:00+31ЮЗ, 2 м/с66%1008 гПаясно
20:00+30ЮЗ, 2 м/с69%1009 гПаясно
21:00+29З, 1 м/с71%1009 гПаясно
22:00+28З, 1 м/с73%1009 гПаясно
23:00+27З, 1 м/с77%1009 гПаясно
27 августа
00:00+26ЮЗ, 1 м/с84%1009 гПаясно
01:00+26ЮЗ, 1 м/с86%1009 гПаясно
02:00+26З, 1 м/с85%1009 гПаясно
03:00+25СЗ, 1 м/с84%1009 гПаясно
04:00+25СЗ, 2 м/с87%1009 гПамалооблачно
05:00+24СЗ, 2 м/с88%1009 гПас прояснениями
06:00+24СЗ, 2 м/с90%1009 гПаоблачно
07:00+25СЗ, 3 м/с88%1010 гПаоблачно
08:00+26С, 3 м/с80%1010 гПаоблачно
09:00+28С, 3 м/с75%1010 гПас прояснениями
10:00+29СВ, 3 м/с71%1010 гПамалооблачно
11:00+30СВ, 3 м/с66%1010 гПаясно
12:00+31В, 3 м/с67%1010 гПаясно
13:00+30ЮВ, 5 м/с74%1010 гПамалооблачно
14:00+31ЮВ, 5 м/с68%1009 гПаясно
15:00+32Ю, 5 м/с59%1009 гПаясно
16:00+32Ю, 6 м/с59%1008 гПаясно
17:00+31Ю, 6 м/с69%1008 гПаясно
18:00+30Ю, 6 м/с72%1008 гПаясно
19:00+30Ю, 5 м/с74%1008 гПаясно
20:00+29Ю, 4 м/с76%1008 гПаясно
21:00+29СЗ, 3 м/с78%1008 гПаясно